Regional Weather Roundup
Issued by NWS

Home | Current Version | Previous Version | Graphics & Text | Print | Product List | Glossary On
Versions: 1 2 3 4 5 6 7 8 9 10 11 12 13 14 15 16 17 18 19 20 21 22 23 24 25 26 27 28 29 30 31 32 33 34 35 36 37 38 39 40 41 42 43 44 45 46 47 48 49 50
124
ASUS43 KLSX 082057
RWRMO

WEATHER SUMMARY FOR MISSOURI
NATIONAL WEATHER SERVICE SPRINGFIELD MO
300 PM CST THU DEC 08 2016

NOTE: "FAIR" INDICATES FEW OR NO CLOUDS BELOW 12,000 FEET WITH NO
       SIGNIFICANT WEATHER AND/OR OBSTRUCTIONS TO VISIBILITY.
       CURRENT SKY AND/OR WEATHER CONDITIONS ARE NOT AVAILABLE FOR
       CHILLICOTHE AND FARMINGTON.

MOZ001>031-035>038-043-044-053-054-082200-
...NORTHERN AND WESTERN MISSOURI...

CITY           SKY/WX    TMP DP  RH WIND       PRES   REMARKS
KANSAS CTY INT MOSUNNY   25   9  50 NW13      30.59S WCI  14
LEE`S SUMMIT   SUNNY     25  11  55 NW14      30.59S WCI  13
ST JOSEPH      SUNNY     25  10  53 NW16      30.62R WCI  12
CHILLICOTHE      N/A     27  11  51 NW10G17   30.58R WCI  17

$$
MOZ066>068-077>081-088>096-101>105-082200-
...SOUTHWEST MISSOURI...

CITY           SKY/WX    TMP DP  RH WIND       PRES   REMARKS
SPRINGFIELD    SUNNY     29  13  51 NW13      30.55S WCI  19
JOPLIN         SUNNY     29  13  51 NW13      30.62S WCI  19
BRANSON        MOSUNNY   32   9  37 NW10      30.54F WCI  24

$$
MOZ032>034-039>042-045>050-055>058-069>072-082200-
...CENTRAL MISSOURI...

CITY           SKY/WX    TMP DP  RH WIND       PRES   REMARKS
COLUMBIA       NOT AVBL
JEFFERSON CITY SUNNY     28  12  51 NW13      30.56R WCI  17
ROLLA          FLURRIES  28  12  51 W14G25    30.49R WCI  17
SEDALIA        PTSUNNY   26  13  57 W15       30.58R WCI  14
WARRENSBURG    SUNNY     27  12  54 W7G17     30.59S WCI  19

$$
MOZ051-052-059>065-082200-
...EAST CENTRAL MISSOURI...

CITY           SKY/WX    TMP DP  RH WIND       PRES   REMARKS
ST LOUIS INTL  MOSUNNY   30  11  45 W21G26    30.49R WCI  17

$$
MOZ072>076-082>087-097>100-106>115-082200-
...SOUTH CENTRAL AND SOUTHEAST MISSOURI...

CITY           SKY/WX    TMP DP  RH WIND       PRES   REMARKS
CAPE GIRARDEAU SUNNY     36  14  40 NW13      30.48R WCI  27
POPLAR BLUFF   SUNNY     37  12  35 NW10      30.50R WCI  30
WEST PLAINS    SUNNY     33  11  39 W15G24    30.50S WCI  23

$$



USA.gov is the U.S. government's official web portal to all federal, state and local government web resources and services.